TimeCST,TemperatureF,Dew PointF,Humidity,Sea Level PressureIn,VisibilityMPH,Wind Direction,Wind SpeedMPH,Gust SpeedMPH,PrecipitationIn,Events,Conditions,WindDirDegrees,DateUTC
12:15 AM,69.8,66.2,88,30.10,6.0,West,5.8,-,N/A,,Overcast,280,2012-12-05 06:15:00
12:35 AM,69.8,66.2,88,30.10,6.0,WNW,8.1,-,N/A,,Haze,300,2012-12-05 06:35:00
12:55 AM,69.8,66.2,88,30.10,6.0,NNW,8.1,-,N/A,,Haze,330,2012-12-05 06:55:00
1:15 AM,69.8,66.2,88,30.10,6.0,NNW,8.1,-,N/A,,Haze,340,2012-12-05 07:15:00
1:35 AM,69.8,66.2,88,30.11,6.0,North,9.2,-,N/A,,Clear,350,2012-12-05 07:35:00
1:55 AM,69.8,66.2,88,30.11,-9999.0,NNW,6.9,-,N/A,,Unknown,340,2012-12-05 07:55:00
2:15 AM,69.8,68.0,94,30.10,5.0,NNW,5.8,-,N/A,,Clear,330,2012-12-05 08:15:00
2:35 AM,71.6,68.0,88,30.10,4.0,North,8.1,-,N/A,,Clear,350,2012-12-05 08:35:00
2:55 AM,69.8,68.0,94,30.10,5.0,NNE,12.7,-,N/A,,Clear,30,2012-12-05 08:55:00
3:15 AM,71.6,68.0,88,30.10,5.0,NE,20.7,-,N/A,,Scattered Clouds,40,2012-12-05 09:15:00
3:35 AM,71.6,68.0,88,30.10,5.0,NNE,13.8,20.7,N/A,,Scattered Clouds,30,2012-12-05 09:35:00
3:55 AM,69.8,66.2,88,30.10,5.0,NNE,18.4,-,N/A,,Clear,30,2012-12-05 09:55:00
4:15 AM,69.8,66.2,88,30.10,5.0,NE,16.1,-,N/A,,Partly Cloudy,40,2012-12-05 10:15:00
4:35 AM,69.8,66.2,88,30.10,5.0,NNE,13.8,-,N/A,,Haze,30,2012-12-05 10:35:00
4:55 AM,71.6,66.2,83,30.11,6.0,NNE,8.1,-,N/A,,Haze,20,2012-12-05 10:55:00
5:15 AM,71.6,66.2,83,30.11,5.0,NNE,5.8,-,N/A,,Haze,20,2012-12-05 11:15:00
5:35 AM,69.8,66.2,88,30.12,7.0,North,6.9,-,N/A,,Clear,10,2012-12-05 11:35:00
5:55 AM,71.6,66.2,83,30.12,7.0,NNE,6.9,-,N/A,,Clear,20,2012-12-05 11:55:00
6:15 AM,71.6,66.2,83,30.13,6.0,NNE,5.8,13.8,N/A,,Haze,20,2012-12-05 12:15:00
6:35 AM,71.6,66.2,83,30.14,7.0,NNE,5.8,-,N/A,,Mostly Cloudy,20,2012-12-05 12:35:00
6:55 AM,71.6,66.2,83,30.14,7.0,North,5.8,-,N/A,,Mostly Cloudy,360,2012-12-05 12:55:00
8:55 AM,69.8,66.2,88,30.17,8.0,NNW,6.9,-,N/A,,Clear,340,2012-12-05 14:55:00
9:15 AM,69.8,66.2,88,30.18,7.0,NNW,12.7,-,N/A,,Mostly Cloudy,330,2012-12-05 15:15:00
9:35 AM,69.8,64.4,83,30.18,8.0,NNW,10.4,-,N/A,,Overcast,330,2012-12-05 15:35:00
9:55 AM,69.8,62.6,78,30.18,8.0,NNW,11.5,-,N/A,,Overcast,330,2012-12-05 15:55:00
10:15 AM,69.8,62.6,78,30.18,8.0,NNW,8.1,-,N/A,,Partly Cloudy,330,2012-12-05 16:15:00
10:35 AM,69.8,62.6,78,30.18,8.0,NNW,10.4,-,N/A,,Clear,330,2012-12-05 16:35:00
10:55 AM,69.8,60.8,73,30.18,8.0,NNW,10.4,-,N/A,,Clear,330,2012-12-05 16:55:00
11:15 AM,69.8,60.8,73,30.18,9.0,NNW,9.2,-,N/A,,Clear,340,2012-12-05 17:15:00
11:35 AM,68.0,59.0,73,30.17,9.0,NNW,10.4,-,N/A,,Scattered Clouds,330,2012-12-05 17:35:00
11:55 AM,68.0,59.0,73,30.16,9.0,NNW,9.2,-,N/A,,Mostly Cloudy,330,2012-12-05 17:55:00
12:15 PM,68.0,59.0,73,30.14,9.0,NNW,10.4,-,N/A,,Scattered Clouds,330,2012-12-05 18:15:00
12:35 PM,68.0,59.0,73,30.14,9.0,NNW,9.2,-,N/A,,Mostly Cloudy,330,2012-12-05 18:35:00
1:15 PM,68.0,59.0,73,30.11,9.0,NNW,6.9,-,N/A,,Clear,340,2012-12-05 19:15:00
1:35 PM,69.8,59.0,68,30.09,10.0,NNW,9.2,-,N/A,,Clear,330,2012-12-05 19:35:00
1:55 PM,69.8,59.0,68,30.09,9.0,NNW,11.5,-,N/A,,Clear,330,2012-12-05 19:55:00
2:15 PM,69.8,59.0,68,30.08,9.0,NNW,10.4,-,N/A,,Partly Cloudy,330,2012-12-05 20:15:00
2:35 PM,69.8,59.0,68,30.08,9.0,NNW,9.2,-,N/A,,Partly Cloudy,330,2012-12-05 20:35:00
2:55 PM,68.0,59.0,73,30.07,9.0,NNW,9.2,-,N/A,,Clear,340,2012-12-05 20:55:00
3:15 PM,68.0,59.0,73,30.06,8.0,NNW,8.1,-,N/A,,Clear,340,2012-12-05 21:15:00
3:35 PM,68.0,59.0,73,30.06,9.0,NNW,6.9,-,N/A,,Clear,340,2012-12-05 21:35:00
3:55 PM,68.0,59.0,73,30.06,9.0,North,8.1,-,N/A,,Clear,360,2012-12-05 21:55:00
4:15 PM,68.0,59.0,73,30.06,9.0,North,6.9,-,N/A,,Clear,360,2012-12-05 22:15:00
4:35 PM,68.0,59.0,73,30.05,9.0,North,8.1,-,N/A,,Clear,360,2012-12-05 22:35:00
4:55 PM,68.0,59.0,73,30.06,9.0,North,5.8,-,N/A,,Clear,10,2012-12-05 22:55:00
5:15 PM,68.0,59.0,73,30.06,9.0,NNE,5.8,-,N/A,,Clear,20,2012-12-05 23:15:00
5:35 PM,68.0,59.0,73,30.06,9.0,North,5.8,-,N/A,,Clear,10,2012-12-05 23:35:00
5:55 PM,68.0,59.0,73,30.06,9.0,NNE,5.8,-,N/A,,Clear,20,2012-12-05 23:55:00
6:15 PM,68.0,59.0,73,30.06,10.0,NNE,5.8,-,N/A,,Clear,20,2012-12-06 00:15:00
6:35 PM,68.0,59.0,73,30.06,10.0,NNE,10.4,-,N/A,,Clear,30,2012-12-06 00:35:00
6:55 PM,68.0,59.0,73,30.07,10.0,NNE,8.1,-,N/A,,Clear,30,2012-12-06 00:55:00
7:15 PM,68.0,59.0,73,30.07,10.0,NNE,8.1,-,N/A,,Clear,30,2012-12-06 01:15:00
7:35 PM,68.0,59.0,73,30.06,10.0,NNE,11.5,-,N/A,,Clear,30,2012-12-06 01:35:00
7:55 PM,68.0,60.8,78,30.06,9.0,NNE,11.5,-,N/A,,Clear,30,2012-12-06 01:55:00
8:15 PM,68.0,60.8,78,30.06,10.0,NNE,10.4,-,N/A,,Clear,30,2012-12-06 02:15:00
8:35 PM,68.0,60.8,78,30.06,10.0,NE,13.8,-,N/A,,Clear,40,2012-12-06 02:35:00
8:55 PM,69.8,60.8,73,30.06,10.0,NE,13.8,-,N/A,,Clear,40,2012-12-06 02:55:00
9:15 PM,69.8,60.8,73,30.06,9.0,NNE,11.5,-,N/A,,Clear,30,2012-12-06 03:15:00
9:55 PM,69.8,60.8,73,30.06,9.0,NE,13.8,-,N/A,,Clear,40,2012-12-06 03:55:00
10:15 PM,69.8,60.8,73,30.06,10.0,NE,15.0,-,N/A,,Clear,40,2012-12-06 04:15:00
10:35 PM,69.8,60.8,73,30.06,10.0,NNE,11.5,-,N/A,,Clear,30,2012-12-06 04:35:00
10:55 PM,69.8,60.8,73,30.05,9.0,NE,12.7,-,N/A,,Clear,40,2012-12-06 04:55:00
11:15 PM,69.8,60.8,73,30.05,10.0,NE,12.7,-,N/A,,Clear,40,2012-12-06 05:15:00
11:35 PM,69.8,59.0,68,30.05,9.0,NE,10.4,-,N/A,,Clear,40,2012-12-06 05:35:00
11:55 PM,69.8,59.0,68,30.03,10.0,NE,10.4,-,N/A,,Clear,40,2012-12-06 05:55:00